Regional Weather Roundup
Issued by NWS Bismarck, ND

Home | Current Version | Previous Version | Text Only | Print | Product List | Glossary On
Versions: 1 2 3 4 5 6 7 8 9 10 11 12 13 14 15 16 17 18 19 20 21 22 23 24 25 26 27 28 29 30 31 32 33 34 35 36 37 38 39 40 41 42 43 44 45 46 47 48 49 50
000
ASUS43 KBIS 241802
RWRBIS

NWR BROADCAST TEXT
NATIONAL WEATHER SERVICE BISMARCK ND
100 PM CDT WED AUG 24 2016

NOTE: "FAIR" INDICATES FEW OR NO CLOUDS BELOW 12,000 FEET WITH NO
SIGNIFICANT WEATHER AND/OR OBSTRUCTIONS TO VISIBILITY.


CITY           SKY/WX    TMP DP  RH WIND       PRES   REMARKS
WILLISTON      CLOUDY    61  47  59 W17G28    30.03S
MINOT          PTSUNNY   67  48  50 W25G33    29.92S
MINOT AFB      PTSUNNY   66  49  53 W23G32    29.91S
BISMARCK       CLOUDY    68  48  48 W25G36    30.02S
DICKINSON      MOSUNNY   68  42  38 W24G35    30.06R
GARRISON         N/A     67  47  48 W22G38    29.97S
HETTINGER ARPT MOSUNNY   70  47  43 W24G36    30.12F
JAMESTOWN      PTSUNNY   70  53  54 W21G30    29.96S
CARRINGTON     CLOUDY    66  52  59 W23G29    29.97S
HAZEN          CLOUDY    66  46  48 W23G32    30.03R
OAKES            N/A    N/A N/A N/A MISG        N/A
STANLEY        MOCLDY    59  54  82 W15G29    30.01S
$$

CITY           SKY/WX    TMP DP  RH WIND       PRES   REMARKS
GRAND FORKS    MOSUNNY   72  54  53 W18G28    29.86S
GRAND FORKS AF MOSUNNY   71  55  55 W18G26    29.88S
DEVILS LAKE    CLOUDY    66  51  58 W18G24    29.91R
FARGO          MOSUNNY   74  53  48 W17G24    29.91R
CAVALIER       FAIR      70  50  49 W17G24    29.84S
GRAFTON        FAIR      72  54  53 W22G32    29.87S
GWINNER        FAIR      72  55  56 W17G23    29.99R
LANGDON        CLOUDY    66  52  59 W20G28    29.88R
ROLLA          MOCLDY    64  50  59 W17G29    29.87S
$$

CITY           SKY/WX    TMP DP  RH WIND       PRES   REMARKS
ABERDEEN       CLOUDY    73  52  47 W16G24    30.02S
MOBRIDGE       CLOUDY    76  49  38 NW17G26   30.04F
BUFFALO          N/A     68  46  45 W23G35    30.10F
RAPID CITY     MOSUNNY   72  46  39 N8        30.19F
GLASGOW        CLOUDY    57  46  66 NW25      30.16R
SIDNEY         PTSUNNY   66  46  48 NW23G35   30.07S
WOLF POINT     CLOUDY    61  46  57 W22G31    30.12R
GLENDIVE       MOSUNNY   65  45  48 W23G31    30.13
MILES CITY     CLOUDY    66  44  45 NW26G32   30.18S
BAKER          MOSUNNY   68  41  37 W26G41    30.14F
$$

CITY           SKY/WX    TMP DP  RH WIND       PRES   REMARKS
BILLINGS       PTSUNNY   66  41  40 NW17      30.26S
GREAT FALLS    PTSUNNY   61  39  44 N12       30.36S
$$





USA.gov is the U.S. government's official web portal to all federal, state and local government web resources and services.